Find Kosmos-2465

NORAD ID: 37138 Int'l Des: 2010-041 Owner: KVR/IACG Country: RU Constellation: GLONASS operational
MEOCIRCULAR

Live-Position

3D-Globus wird geladen...

Über Kosmos-2465

Beschreibung wird geladen...

Nächste Überflüge

Passes for default location (London). Set your location on the main map for personalized predictions.

Höhenverlauf

Loading altitude history...

Zweizeiliger Elementsatz

1 37138U 10041B 26106.60623458 .00000042 00000-0 00000+0 0 9992
2 37138 63.9079 192.3474 0040943 180.9720 188.0492 2.13098267121559
Epoch: 16. Apr. 2026 • Age: 29 hours

Aktueller Status

Höhe 19039.7 km
Geschwindigkeit 3.97 km/s
Subsatellitenpunkt -21.26°S, 110.09°W
Startdatum 2. Sept. 2010
Alter 15.6 years
Typ other

Technische Details

Klassifizierung Payload
Masse 1450.00 kg
Trockenmasse 1200.00 kg
Gesamtmasse 1450.00 kg
Länge 4.00 m
Durchmesser 1.50 m
Spannweite 7.80 m
Form Cyl + Ant + 2 Pan
Hersteller RESH
Bus-Typ Uragan
Phasenstatus In Orbit
Besitzer/Staat KVR/IACG/RU

Most Searched